#�ϑ�����,���ϕ���,���ϕ���,�ő啗��,�ő啗����������,�ő�u�ԕ���,�ő�u�ԕ�����������
#(�N����),(m/s)   ,(16����),(m/s)   ,(16����)        ,(m/s)       ,(16����)            
2018/1/24 0:01,0.8,11,0.8,12,0.8,12
2018/1/24 0:02,0.8,11,0.8,12,0.8,10
2018/1/24 0:03,0.7,11,0.7,12,0.1,12
2018/1/24 0:04,0.6,11,0.7,12,0.9,11
2018/1/24 0:05,0.6,11,0.6,12,0.8,10
2018/1/24 0:06,0.5,11,0.5,12,0.9,11
2018/1/24 0:07,0.4,11,0.5,12,1.4,12
2018/1/24 0:08,0.5,11,0.5,11,1.1,10
2018/1/24 0:09,0.5,11,0.5,11,1.8,10
2018/1/24 0:10,0.5,11,0.5,11,1,8
2018/1/24 0:11,0.5,11,0.5,11,1.8,10
2018/1/24 0:12,0.6,11,0.6,11,1.5,11
2018/1/24 0:13,0.7,11,0.7,11,1.5,10
2018/1/24 0:14,0.8,11,0.8,11,1.5,10
2018/1/24 0:15,0.8,11,0.8,11,1.1,11
2018/1/24 0:16,0.8,11,0.8,11,0.8,10
2018/1/24 0:17,0.7,11,0.8,11,0.5,15
2018/1/24 0:18,0.7,11,0.7,11,1.1,13
2018/1/24 0:19,0.7,12,0.7,11,1.1,13
2018/1/24 0:20,0.7,12,0.7,11,1.5,13
2018/1/24 0:21,0.7,12,0.7,11,1.1,11
2018/1/24 0:22,0.6,12,0.7,11,1,12
2018/1/24 0:23,0.6,12,0.6,11,0.6,10
2018/1/24 0:24,0.5,12,0.6,11,1,12
2018/1/24 0:25,0.5,12,0.5,11,1,9
2018/1/24 0:26,0.5,12,0.5,11,1.3,11
2018/1/24 0:27,0.6,11,0.6,11,0.5,12
2018/1/24 0:28,0.5,11,0.6,11,1.1,9
2018/1/24 0:29,0.5,11,0.5,12,1.1,9
2018/1/24 0:30,0.4,10,0.5,12,0.9,9
2018/1/24 0:31,0.4,10,0.4,12,0.9,10
2018/1/24 0:32,0.4,10,0.4,12,0.8,9
2018/1/24 0:33,0.4,10,0.4,12,0.3,5
2018/1/24 0:34,0.4,10,0.4,12,0.9,8
2018/1/24 0:35,0.4,10,0.4,12,1,9
2018/1/24 0:36,0.4,9,0.4,12,1,10
2018/1/24 0:37,0.4,9,0.4,11,0.3,14
2018/1/24 0:38,0.3,9,0.4,11,0.1,8
2018/1/24 0:39,0.3,9,0.3,11,0.3,10
2018/1/24 0:40,0.3,10,0.3,10,0.1,9
2018/1/24 0:41,0.2,10,0.2,10,0,12
2018/1/24 0:42,0.2,9,0.2,10,0.3,4
2018/1/24 0:43,0.2,9,0.2,10,0.4,16
2018/1/24 0:44,0.1,9,0.2,10,0.8,15
2018/1/24 0:45,0.1,11,0.1,10,0.8,15
2018/1/24 0:46,0.1,16,0.1,9,0.5,1
2018/1/24 0:47,0.1,1,0.1,9,0.4,16
2018/1/24 0:48,0.1,1,0.1,9,0.4,1
2018/1/24 0:49,0.2,2,0.2,9,0.4,2
2018/1/24 0:50,0.2,2,0.2,10,0.5,1
2018/1/24 0:51,0.2,2,0.2,10,0.6,2
2018/1/24 0:52,0.2,1,0.2,9,0.3,1
2018/1/24 0:53,0.2,1,0.2,9,0.3,15
2018/1/24 0:54,0.2,1,0.2,2,0,10
2018/1/24 0:55,0.2,1,0.2,2,0.1,16
2018/1/24 0:56,0.2,1,0.2,2,1,15
2018/1/24 0:57,0.2,1,0.2,2,0.8,16
2018/1/24 0:58,0.2,1,0.2,2,0.3,2
2018/1/24 0:59,0.2,1,0.2,2,0.9,3
2018/1/24 1:00,0.2,1,0.2,2,0.9,16
2018/1/24 1:01,0.3,1,0.3,1,1.5,1
2018/1/24 1:02,0.3,1,0.3,1,1.3,1
2018/1/24 1:03,0.4,1,0.4,1,0.9,1
2018/1/24 1:04,0.4,1,0.4,1,0.3,1
2018/1/24 1:05,0.4,1,0.4,1,1,11
2018/1/24 1:06,0.4,1,0.5,1,1.5,9
2018/1/24 1:07,0.4,1,0.4,1,0.6,10
2018/1/24 1:08,0.5,16,0.5,1,1,13
2018/1/24 1:09,0.5,14,0.6,14,1.6,13
2018/1/24 1:10,0.6,13,0.6,14,1.4,13
2018/1/24 1:11,0.6,12,0.6,14,1.4,13
2018/1/24 1:12,0.5,12,0.6,14,0.5,10
2018/1/24 1:13,0.6,11,0.6,14,1.5,9
2018/1/24 1:14,0.7,11,0.7,11,1.6,9
2018/1/24 1:15,0.7,10,0.7,11,1.4,8
2018/1/24 1:16,0.7,10,0.7,11,0.3,11
2018/1/24 1:17,0.7,10,0.7,11,0.9,10
2018/1/24 1:18,0.7,10,0.7,11,0.9,11
2018/1/24 1:19,0.6,10,0.7,11,0.8,7
2018/1/24 1:20,0.6,9,0.6,11,1.5,7
2018/1/24 1:21,0.6,9,0.6,11,1.5,8
2018/1/24 1:22,0.6,9,0.6,11,1.5,8
2018/1/24 1:23,0.6,9,0.6,11,0.4,10
2018/1/24 1:24,0.5,9,0.6,11,0.8,16
2018/1/24 1:25,0.5,10,0.5,10,1,14
2018/1/24 1:26,0.6,10,0.6,10,2.2,13
2018/1/24 1:27,0.7,11,0.7,10,2.2,13
2018/1/24 1:28,0.8,11,0.8,11,1.5,13
2018/1/24 1:29,0.8,12,0.8,11,1.5,13
2018/1/24 1:30,0.8,12,0.8,11,1.6,12
2018/1/24 1:31,0.7,13,0.8,11,0.1,12
2018/1/24 1:32,0.7,13,0.7,11,0.4,13
2018/1/24 1:33,0.6,13,0.7,11,0,11
2018/1/24 1:34,0.7,13,0.7,11,1.3,16
2018/1/24 1:35,0.7,13,0.7,11,1.3,16
2018/1/24 1:36,0.5,13,0.7,11,0.9,16
2018/1/24 1:37,0.4,13,0.5,11,0.4,16
2018/1/24 1:38,0.4,14,0.4,11,0.9,16
2018/1/24 1:39,0.3,14,0.4,12,0,15
2018/1/24 1:40,0.2,15,0.3,12,0.3,15
2018/1/24 1:41,0.2,15,0.2,13,0.4,16
2018/1/24 1:42,0.2,15,0.2,13,0.4,14
2018/1/24 1:43,0.2,15,0.2,13,0.3,2
2018/1/24 1:44,0.2,16,0.2,13,0.3,3
2018/1/24 1:45,0.1,16,0.2,13,0.3,15
2018/1/24 1:46,0.1,16,0.1,13,1.1,14
2018/1/24 1:47,0.2,15,0.2,13,1.6,13
2018/1/24 1:48,0.3,15,0.3,14,1.5,15
2018/1/24 1:49,0.3,15,0.3,14,1.5,15
2018/1/24 1:50,0.4,14,0.4,14,0.5,13
2018/1/24 1:51,0.4,14,0.4,14,0.5,14
2018/1/24 1:52,0.4,14,0.4,14,0.6,14
2018/1/24 1:53,0.4,14,0.4,14,0.5,13
2018/1/24 1:54,0.4,13,0.4,14,0.5,11
2018/1/24 1:55,0.4,13,0.4,14,0.3,13
2018/1/24 1:56,0.4,13,0.4,14,0.6,9
2018/1/24 1:57,0.3,13,0.3,14,1,13
2018/1/24 1:58,0.3,13,0.3,14,1.5,11
2018/1/24 1:59,0.2,13,0.2,14,1,14
2018/1/24 2:00,0.2,13,0.2,14,0.4,16
2018/1/24 2:01,0.2,14,0.2,14,0.8,16
2018/1/24 2:02,0.2,14,0.2,14,0.5,16
2018/1/24 2:03,0.3,14,0.3,14,1.5,16
2018/1/24 2:04,0.3,15,0.3,13,0.3,11
2018/1/24 2:05,0.3,15,0.3,13,0.3,6
2018/1/24 2:06,0.2,16,0.3,13,0.1,6
2018/1/24 2:07,0.2,1,0.3,13,0.5,2
2018/1/24 2:08,0.2,1,0.2,14,0.1,12
2018/1/24 2:09,0.2,1,0.2,14,0.8,1
2018/1/24 2:10,0.2,1,0.2,14,1.1,16
2018/1/24 2:11,0.2,1,0.2,14,0.4,16
2018/1/24 2:12,0.2,1,0.2,14,0.4,2
2018/1/24 2:13,0.1,2,0.2,14,0.1,3
2018/1/24 2:14,0.1,2,0.1,15,0.4,1
2018/1/24 2:15,0.2,1,0.2,15,0.5,9
2018/1/24 2:16,0.2,1,0.2,1,0.8,10
2018/1/24 2:17,0.2,1,0.2,1,0.4,1
2018/1/24 2:18,0.2,1,0.2,1,0.1,3
2018/1/24 2:19,0.1,1,0.2,1,0.4,14
2018/1/24 2:20,0.1,1,0.1,1,0.5,16
2018/1/24 2:21,0.1,16,0.1,1,0.8,14
2018/1/24 2:22,0.2,15,0.2,1,0.9,14
2018/1/24 2:23,0.3,14,0.3,14,1.4,10
2018/1/24 2:24,0.3,13,0.3,14,0.9,12
2018/1/24 2:25,0.3,13,0.3,14,0.5,11
2018/1/24 2:26,0.3,13,0.3,14,0.3,12
2018/1/24 2:27,0.3,14,0.3,14,1.1,15
2018/1/24 2:28,0.3,13,0.3,14,0.6,14
2018/1/24 2:29,0.3,14,0.3,14,0.4,2
2018/1/24 2:30,0.4,14,0.4,14,1,16
2018/1/24 2:31,0.3,14,0.4,14,0.5,16
2018/1/24 2:32,0.4,15,0.4,14,1.1,16
2018/1/24 2:33,0.3,15,0.4,14,1.3,1
2018/1/24 2:34,0.4,16,0.4,14,1.1,1
2018/1/24 2:35,0.4,16,0.4,14,1.1,16
2018/1/24 2:36,0.5,16,0.5,16,1,16
2018/1/24 2:37,0.5,16,0.5,16,1.4,1
2018/1/24 2:38,0.6,1,0.6,1,1.3,1
2018/1/24 2:39,0.6,16,0.6,1,1.1,16
2018/1/24 2:40,0.6,16,0.6,1,1,1
2018/1/24 2:41,0.6,16,0.6,1,1.3,16
2018/1/24 2:42,0.7,16,0.7,16,1.3,1
2018/1/24 2:43,0.6,16,0.7,16,0.8,16
2018/1/24 2:44,0.6,16,0.6,16,1.6,16
2018/1/24 2:45,0.6,16,0.6,16,1.4,1
2018/1/24 2:46,0.7,16,0.7,16,1.5,1
2018/1/24 2:47,0.6,16,0.7,16,1.4,1
2018/1/24 2:48,0.6,16,0.6,16,1,1
2018/1/24 2:49,0.6,16,0.6,16,1,16
2018/1/24 2:50,0.6,16,0.6,16,0.6,15
2018/1/24 2:51,0.6,16,0.6,16,1.1,16
2018/1/24 2:52,0.6,16,0.6,16,1,1
2018/1/24 2:53,0.6,16,0.6,16,1,16
2018/1/24 2:54,0.6,16,0.6,16,1.1,16
2018/1/24 2:55,0.5,16,0.6,16,1,1
2018/1/24 2:56,0.4,16,0.5,16,0.9,14
2018/1/24 2:57,0.4,15,0.4,16,0.9,14
2018/1/24 2:58,0.4,15,0.4,16,0,10
2018/1/24 2:59,0.3,14,0.4,16,0.3,12
2018/1/24 3:00,0.3,14,0.3,16,0.5,12
2018/1/24 3:01,0.3,14,0.3,16,0.4,15
2018/1/24 3:02,0.2,13,0.3,16,0.3,13
2018/1/24 3:03,0.2,13,0.2,16,0.3,12
2018/1/24 3:04,0.2,13,0.2,16,0.4,13
2018/1/24 3:05,0.1,12,0.2,16,0.4,12
2018/1/24 3:06,0.1,12,0.2,16,0.6,13
2018/1/24 3:07,0.1,12,0.1,15,0.4,12
2018/1/24 3:08,0.2,13,0.2,15,0.8,16
2018/1/24 3:09,0.2,13,0.2,14,0.5,2
2018/1/24 3:10,0.2,14,0.2,14,0.6,2
2018/1/24 3:11,0.1,14,0.1,13,0.1,1
2018/1/24 3:12,0.2,15,0.2,13,0.8,15
2018/1/24 3:13,0.2,15,0.2,13,0.5,15
2018/1/24 3:14,0.2,15,0.2,13,0.9,16
2018/1/24 3:15,0.2,16,0.2,12,0.1,16
2018/1/24 3:16,0.2,16,0.2,13,0.3,11
2018/1/24 3:17,0.2,16,0.2,13,0.1,14
2018/1/24 3:18,0.2,15,0.2,13,0.4,8
2018/1/24 3:19,0.2,15,0.2,14,0.4,6
2018/1/24 3:20,0.1,14,0.1,14,0.3,13
2018/1/24 3:21,0.1,14,0.1,14,0.3,4
2018/1/24 3:22,0.1,15,0.1,15,0.1,14
2018/1/24 3:23,0.1,15,0.1,15,0.3,12
2018/1/24 3:24,0.1,13,0.1,15,0.6,11
2018/1/24 3:25,0.1,12,0.1,16,0.5,13
2018/1/24 3:26,0.1,11,0.1,16,0.3,11
2018/1/24 3:27,0.1,11,0.1,16,0.5,1
2018/1/24 3:28,0.1,13,0.1,15,0.6,13
2018/1/24 3:29,0.1,13,0.1,15,0.3,14
2018/1/24 3:30,0.1,13,0.1,14,0.4,15
2018/1/24 3:31,0.1,13,0.1,14,0.8,1
2018/1/24 3:32,0.2,13,0.2,13,0.6,2
2018/1/24 3:33,0.2,13,0.2,13,0.4,1
2018/1/24 3:34,0.1,14,0.2,13,0,1
2018/1/24 3:35,0.1,14,0.1,13,0.1,9
2018/1/24 3:36,0.2,14,0.2,13,0.6,9
2018/1/24 3:37,0.2,14,0.2,13,0.6,11
2018/1/24 3:38,0.2,14,0.2,13,0.1,12
2018/1/24 3:39,0.2,14,0.2,13,0,13
2018/1/24 3:40,0.1,14,0.2,13,0.1,15
2018/1/24 3:41,0.1,14,0.1,13,0.3,15
2018/1/24 3:42,0.1,14,0.1,13,0.8,16
2018/1/24 3:43,0.2,14,0.2,14,0.9,16
2018/1/24 3:44,0.2,13,0.2,14,0.9,16
2018/1/24 3:45,0.2,14,0.2,14,0.4,15
2018/1/24 3:46,0.2,14,0.2,14,0.1,8
2018/1/24 3:47,0.2,14,0.2,14,0.1,14
2018/1/24 3:48,0.2,14,0.2,14,0.1,14
2018/1/24 3:49,0.2,15,0.2,14,0.5,11
2018/1/24 3:50,0.2,15,0.2,14,0.8,1
2018/1/24 3:51,0.2,15,0.2,14,1,15
2018/1/24 3:52,0.2,15,0.3,15,1,13
2018/1/24 3:53,0.2,14,0.2,15,0.8,12
2018/1/24 3:54,0.2,14,0.2,15,0.6,11
2018/1/24 3:55,0.2,14,0.2,15,0.6,1
2018/1/24 3:56,0.2,15,0.2,15,0.5,2
2018/1/24 3:57,0.3,15,0.3,15,0.6,1
2018/1/24 3:58,0.3,16,0.3,15,0.5,2
2018/1/24 3:59,0.3,16,0.3,15,0.3,15
2018/1/24 4:00,0.3,15,0.3,15,1.1,1
2018/1/24 4:01,0.4,16,0.4,16,1.8,1
2018/1/24 4:02,0.4,16,0.4,16,1.1,16
2018/1/24 4:03,0.3,16,0.3,16,0.3,15
2018/1/24 4:04,0.3,16,0.3,16,0.1,15
2018/1/24 4:05,0.3,16,0.3,16,0.5,1
2018/1/24 4:06,0.4,16,0.4,16,1.6,2
2018/1/24 4:07,0.4,16,0.4,16,1.4,2
2018/1/24 4:08,0.4,16,0.4,16,0.9,1
2018/1/24 4:09,0.4,16,0.4,16,0.3,14
2018/1/24 4:10,0.4,16,0.4,16,1.1,16
2018/1/24 4:11,0.4,15,0.4,16,1.3,16
2018/1/24 4:12,0.3,15,0.4,16,0.8,1
2018/1/24 4:13,0.4,16,0.4,16,0.5,15
2018/1/24 4:14,0.4,15,0.4,16,0.5,15
2018/1/24 4:15,0.4,15,0.4,16,0.1,14
2018/1/24 4:16,0.3,15,0.4,16,0,15
2018/1/24 4:17,0.2,14,0.3,16,0.1,10
2018/1/24 4:18,0.2,13,0.2,16,0,9
2018/1/24 4:19,0.2,13,0.2,16,0.1,8
2018/1/24 4:20,0.1,12,0.2,16,0,8
2018/1/24 4:21,0.1,11,0.1,15,0.3,14
2018/1/24 4:22,0.1,11,0.1,15,1,11
2018/1/24 4:23,0.2,11,0.2,16,1.3,12
2018/1/24 4:24,0.2,10,0.2,15,1,10
2018/1/24 4:25,0.2,10,0.2,15,0.8,7
2018/1/24 4:26,0.3,10,0.3,15,0.9,8
2018/1/24 4:27,0.4,10,0.4,10,2,11
2018/1/24 4:28,0.5,10,0.5,10,1.6,11
2018/1/24 4:29,0.6,10,0.6,10,2,9
2018/1/24 4:30,0.7,11,0.7,11,1.9,12
2018/1/24 4:31,0.7,11,0.7,11,0.6,10
2018/1/24 4:32,0.7,11,0.7,11,0.3,13
2018/1/24 4:33,0.7,11,0.7,11,2,12
2018/1/24 4:34,0.7,12,0.7,11,2.2,12
2018/1/24 4:35,0.7,12,0.7,11,1.3,11
2018/1/24 4:36,0.7,11,0.7,11,0.9,9
2018/1/24 4:37,0.6,11,0.7,11,0.6,9
2018/1/24 4:38,0.6,11,0.6,11,0.6,8
2018/1/24 4:39,0.5,12,0.6,11,0.5,1
2018/1/24 4:40,0.4,12,0.4,11,0.3,2
2018/1/24 4:41,0.4,12,0.4,11,0.6,14
2018/1/24 4:42,0.4,12,0.4,11,1.9,13
2018/1/24 4:43,0.4,12,0.5,12,2,13
2018/1/24 4:44,0.3,11,0.4,12,0.6,12
2018/1/24 4:45,0.3,11,0.3,12,1,13
2018/1/24 4:46,0.4,12,0.4,11,2.5,13
2018/1/24 4:47,0.5,13,0.5,11,2,11
2018/1/24 4:48,0.6,13,0.6,11,1.8,14
2018/1/24 4:49,0.7,13,0.7,13,2.1,13
2018/1/24 4:50,0.8,13,0.8,13,2,14
2018/1/24 4:51,0.9,13,0.9,13,1.4,12
2018/1/24 4:52,0.9,13,0.9,13,1.4,13
2018/1/24 4:53,0.9,12,0.9,13,1.8,11
2018/1/24 4:54,1,12,1,12,2.2,9
2018/1/24 4:55,1.1,12,1.1,12,1.6,9
2018/1/24 4:56,1.1,12,1.1,12,1.4,11
2018/1/24 4:57,1.1,12,1.1,12,2.9,11
2018/1/24 4:58,1.1,11,1.1,12,3.5,9
2018/1/24 4:59,1.2,11,1.2,11,3,10
2018/1/24 5:00,1.3,11,1.3,11,3.2,10
2018/1/24 5:01,1.4,10,1.4,11,3.1,11
2018/1/24 5:02,1.4,11,1.4,11,2,9
2018/1/24 5:03,1.4,10,1.4,11,4.3,9
2018/1/24 5:04,1.5,11,1.5,10,3.1,14
2018/1/24 5:05,1.5,11,1.6,11,4.2,13
2018/1/24 5:06,1.6,11,1.6,11,1.5,11
2018/1/24 5:07,1.5,11,1.6,11,1.3,11
2018/1/24 5:08,1.3,12,1.4,11,2,13
2018/1/24 5:09,1.2,12,1.3,11,3,10
2018/1/24 5:10,1.2,12,1.2,11,2.2,11
2018/1/24 5:11,1.1,12,1.1,11,1.3,10
2018/1/24 5:12,1.1,12,1.1,11,3.1,14
2018/1/24 5:13,1.1,12,1.1,11,3.2,9
2018/1/24 5:14,1,12,1.1,11,2.4,10
2018/1/24 5:15,1,12,1,11,3,13
2018/1/24 5:16,1,12,1,11,3.2,9
2018/1/24 5:17,1.3,12,1.3,11,3.8,11
2018/1/24 5:18,1.5,12,1.5,12,6,10
2018/1/24 5:19,1.7,12,1.7,11,4.2,12
2018/1/24 5:20,1.8,11,1.8,11,6,10
2018/1/24 5:21,2,11,2,11,4.4,12
2018/1/24 5:22,2.1,11,2.1,11,5,10
2018/1/24 5:23,2.4,11,2.4,11,4.9,10
2018/1/24 5:24,2.5,11,2.5,11,4.9,10
2018/1/24 5:25,2.6,10,2.6,10,3.3,10
2018/1/24 5:26,2.7,10,2.7,10,5.6,9
2018/1/24 5:27,2.6,10,2.7,10,3.7,10
2018/1/24 5:28,2.5,10,2.6,10,4.9,10
2018/1/24 5:29,2.6,10,2.6,10,5.8,10
2018/1/24 5:30,2.6,10,2.6,10,5.5,10
2018/1/24 5:31,2.6,10,2.6,10,4.7,11
2018/1/24 5:32,2.5,10,2.6,10,4.4,8
2018/1/24 5:33,2.4,11,2.5,10,4.5,8
2018/1/24 5:34,2.4,10,2.4,10,4.8,9
2018/1/24 5:35,2.4,10,2.5,10,4.9,9
2018/1/24 5:36,2.4,10,2.4,10,2.7,10
2018/1/24 5:37,2.5,10,2.5,10,4.8,10
2018/1/24 5:38,2.5,10,2.6,10,3.9,10
2018/1/24 5:39,2.4,10,2.5,10,6.1,10
2018/1/24 5:40,2.4,10,2.5,10,5.1,10
2018/1/24 5:41,2.4,10,2.5,10,3.2,11
2018/1/24 5:42,2.3,10,2.4,10,2.9,8
2018/1/24 5:43,2.2,10,2.3,10,2.4,10
2018/1/24 5:44,2.2,10,2.2,10,5,10
2018/1/24 5:45,2.2,10,2.2,10,3.6,11
2018/1/24 5:46,2.3,10,2.3,10,3.6,10
2018/1/24 5:47,2.1,10,2.3,10,3.7,10
2018/1/24 5:48,2.2,10,2.2,10,3.8,11
2018/1/24 5:49,2.1,10,2.2,10,3.5,10
2018/1/24 5:50,2.1,10,2.1,10,4.2,9
2018/1/24 5:51,2.2,10,2.2,10,3.7,10
2018/1/24 5:52,2.2,10,2.2,10,3.5,10
2018/1/24 5:53,2.3,10,2.3,10,3.3,10
2018/1/24 5:54,2.1,10,2.3,10,2.7,9
2018/1/24 5:55,2.1,10,2.1,10,2.7,10
2018/1/24 5:56,2,10,2.1,10,2.9,10
2018/1/24 5:57,1.9,10,2,10,2.5,10
2018/1/24 5:58,1.8,10,2,10,3,9
2018/1/24 5:59,1.9,10,1.9,10,3.3,10
2018/1/24 6:00,1.8,10,1.9,10,3.7,10
2018/1/24 6:01,1.8,10,1.8,10,3.8,10
2018/1/24 6:02,1.8,10,1.8,10,3.1,9
2018/1/24 6:03,1.8,10,1.8,10,3.1,10
2018/1/24 6:04,1.8,10,1.9,10,3.7,9
2018/1/24 6:05,1.8,10,1.8,10,3.6,10
2018/1/24 6:06,1.8,10,1.8,10,3.3,11
2018/1/24 6:07,2,10,2,10,2.9,10
2018/1/24 6:08,2,10,2,10,2.9,10
2018/1/24 6:09,1.9,10,2,10,3,9
2018/1/24 6:10,1.8,10,1.9,10,2.5,9
2018/1/24 6:11,1.7,10,1.8,10,3.5,9
2018/1/24 6:12,1.8,10,1.8,10,3.9,9
2018/1/24 6:13,1.8,10,1.8,10,3.6,9
2018/1/24 6:14,1.9,10,1.9,10,3.8,9
2018/1/24 6:15,1.8,10,1.9,10,4.1,9
2018/1/24 6:16,1.9,10,1.9,10,6.1,9
2018/1/24 6:17,1.9,10,1.9,10,5.1,11
2018/1/24 6:18,2,10,2,10,5.8,9
2018/1/24 6:19,2.2,9,2.2,9,6.5,10
2018/1/24 6:20,2.5,10,2.5,10,7.5,10
2018/1/24 6:21,2.6,10,2.7,10,7.7,8
2018/1/24 6:22,2.9,10,2.9,10,8.3,11
2018/1/24 6:23,3.1,10,3.1,10,8.6,11
2018/1/24 6:24,3.5,10,3.5,10,9.3,10
2018/1/24 6:25,3.9,10,3.9,10,7.9,10
2018/1/24 6:26,4,10,4,10,6.5,9
2018/1/24 6:27,4.2,10,4.2,10,7.4,11
2018/1/24 6:28,4.2,10,4.2,10,7.2,11
2018/1/24 6:29,4.2,10,4.3,10,6.1,10
2018/1/24 6:30,4,11,4.2,10,6.2,13
2018/1/24 6:31,4.2,11,4.2,10,7.5,10
2018/1/24 6:32,4.1,11,4.2,10,7.1,10
2018/1/24 6:33,4.1,11,4.2,10,7.7,11
2018/1/24 6:34,3.7,11,4.1,10,3.9,8
2018/1/24 6:35,3.4,11,3.7,10,7.2,10
2018/1/24 6:36,3.2,11,3.4,10,4.1,12
2018/1/24 6:37,2.9,11,3.2,10,3.7,12
2018/1/24 6:38,3,11,3,10,7.9,10
2018/1/24 6:39,2.9,11,3,10,3.6,12
2018/1/24 6:40,2.7,11,2.9,11,2.4,12
2018/1/24 6:41,2.6,11,2.7,11,5,12
2018/1/24 6:42,2.5,11,2.5,11,8.4,10
2018/1/24 6:43,2.4,11,2.5,11,7.6,9
2018/1/24 6:44,2.8,11,2.8,11,10.7,11
2018/1/24 6:45,3.1,12,3.1,11,7.5,11
2018/1/24 6:46,3.2,11,3.3,12,9.5,10
2018/1/24 6:47,3.2,11,3.2,12,3.2,12
2018/1/24 6:48,3.2,12,3.2,12,6.7,12
2018/1/24 6:49,3.2,12,3.2,12,4.7,10
2018/1/24 6:50,3.2,11,3.2,12,2.5,9
2018/1/24 6:51,3.2,11,3.3,12,6.2,11
2018/1/24 6:52,3.2,12,3.2,12,5,12
2018/1/24 6:53,3.3,12,3.3,12,7.7,12
2018/1/24 6:54,3.1,12,3.3,12,7,12
2018/1/24 6:55,2.9,12,3.1,12,3.7,12
2018/1/24 6:56,2.7,12,2.8,11,4.4,12
2018/1/24 6:57,2.7,12,2.8,11,4.2,10
2018/1/24 6:58,2.6,11,2.8,11,5,9
2018/1/24 6:59,2.6,11,2.6,11,3.6,10
2018/1/24 7:00,2.7,11,2.7,11,5.5,8
2018/1/24 7:01,2.6,11,2.7,12,4.4,11
2018/1/24 7:02,2.6,11,2.7,12,3.7,12
2018/1/24 7:03,2.3,11,2.5,12,3.5,10
2018/1/24 7:04,2.1,11,2.3,12,3,14
2018/1/24 7:05,2.1,11,2.1,12,2.6,13
2018/1/24 7:06,2.1,11,2.1,12,6,10
2018/1/24 7:07,2.2,11,2.3,12,5.2,11
2018/1/24 7:08,2.3,11,2.3,11,5.2,11
2018/1/24 7:09,2.3,11,2.3,11,4.2,11
2018/1/24 7:10,2.3,11,2.3,11,4.3,12
2018/1/24 7:11,2.4,11,2.4,11,4.7,10
2018/1/24 7:12,2.4,11,2.4,11,4.5,10
2018/1/24 7:13,2.4,11,2.5,11,3.7,10
2018/1/24 7:14,2.3,11,2.4,11,2.2,8
2018/1/24 7:15,2.4,11,2.4,11,4.5,10
2018/1/24 7:16,2.5,11,2.6,11,5.2,11
2018/1/24 7:17,2.5,10,2.5,11,5.5,9
2018/1/24 7:18,2.4,10,2.6,11,3.6,8
2018/1/24 7:19,2.4,10,2.4,11,4.7,10
2018/1/24 7:20,2.5,10,2.5,11,5,9
2018/1/24 7:21,2.4,10,2.5,11,5.1,8
2018/1/24 7:22,2.4,10,2.4,11,5.8,9
2018/1/24 7:23,2.5,10,2.5,11,4.7,9
2018/1/24 7:24,2.7,10,2.7,10,5,10
2018/1/24 7:25,2.6,10,2.7,10,3.8,10
2018/1/24 7:26,2.5,10,2.6,10,4.7,10
2018/1/24 7:27,2.5,10,2.5,10,3.9,11
2018/1/24 7:28,2.6,10,2.6,10,3.9,9
2018/1/24 7:29,2.6,10,2.7,10,4.3,10
2018/1/24 7:30,2.6,10,2.7,10,4.4,10
2018/1/24 7:31,2.6,10,2.6,10,4.8,10
2018/1/24 7:32,2.7,10,2.7,10,5,9
2018/1/24 7:33,2.5,10,2.7,10,4.1,10
2018/1/24 7:34,2.4,10,2.5,10,3.9,10
2018/1/24 7:35,2.5,10,2.5,10,5,10
2018/1/24 7:36,2.5,10,2.5,10,4.2,10
2018/1/24 7:37,2.5,10,2.5,10,4.1,11
2018/1/24 7:38,2.5,10,2.5,10,4.5,11
2018/1/24 7:39,2.4,10,2.5,10,2.9,10
2018/1/24 7:40,2.4,10,2.4,10,4.3,11
2018/1/24 7:41,2.4,10,2.4,10,4.2,10
2018/1/24 7:42,2.3,10,2.4,10,3.6,10
2018/1/24 7:43,2.3,10,2.3,10,2.4,9
2018/1/24 7:44,2.3,10,2.3,10,3.1,11
2018/1/24 7:45,2.3,10,2.3,10,3.3,10
2018/1/24 7:46,2.3,10,2.3,10,3.5,10
2018/1/24 7:47,2.2,10,2.3,10,3.1,9
2018/1/24 7:48,2.2,10,2.2,10,3.5,10
2018/1/24 7:49,2.2,10,2.2,10,3.2,11
2018/1/24 7:50,2.1,10,2.2,10,3.2,11
2018/1/24 7:51,2,10,2.1,10,3,11
2018/1/24 7:52,1.9,10,2,10,2.2,9
2018/1/24 7:53,2,10,2,10,2.7,11
2018/1/24 7:54,2,10,2,10,3.6,10
2018/1/24 7:55,1.9,10,2,10,3.7,10
2018/1/24 7:56,1.8,10,1.9,10,3.1,9
2018/1/24 7:57,1.9,10,1.9,10,3.8,11
2018/1/24 7:58,1.9,10,1.9,10,3.8,11
2018/1/24 7:59,1.9,10,1.9,10,4.1,9
2018/1/24 8:00,1.9,10,1.9,10,3.7,10
2018/1/24 8:01,2,10,2,10,3.7,9
2018/1/24 8:02,2.1,10,2.1,10,5,10
2018/1/24 8:03,2.3,10,2.3,10,3.9,10
2018/1/24 8:04,2.3,10,2.3,10,6.2,10
2018/1/24 8:05,2.6,10,2.6,10,5.2,10
2018/1/24 8:06,2.7,10,2.7,10,4.8,9
2018/1/24 8:07,2.7,10,2.8,10,3.9,9
2018/1/24 8:08,2.6,10,2.7,10,3.1,10
2018/1/24 8:09,2.5,10,2.6,10,2.6,9
2018/1/24 8:10,2.5,10,2.6,10,3.9,10
2018/1/24 8:11,2.5,10,2.5,10,3.7,10
2018/1/24 8:12,2.5,10,2.5,10,4.5,9
2018/1/24 8:13,2.5,10,2.5,10,4.7,9
2018/1/24 8:14,2.4,10,2.5,10,4.9,10
2018/1/24 8:15,2.4,10,2.4,10,4.9,10
2018/1/24 8:16,2.4,10,2.5,10,4.7,9
2018/1/24 8:17,2.3,10,2.4,10,3.2,11
2018/1/24 8:18,2.3,10,2.4,10,3.7,10
2018/1/24 8:19,2.4,10,2.4,10,3.3,10
2018/1/24 8:20,2.4,10,2.4,10,2.7,11
2018/1/24 8:21,2.2,10,2.4,10,2.2,9
2018/1/24 8:22,2.2,10,2.2,10,3.2,9
2018/1/24 8:23,2.2,10,2.2,10,3.9,10
2018/1/24 8:24,2.1,10,2.2,10,4.8,9
2018/1/24 8:25,1.9,10,2.1,10,3.5,10
2018/1/24 8:26,1.9,10,1.9,10,4.8,10
2018/1/24 8:27,2.1,10,2.1,10,4.8,10
2018/1/24 8:28,2.3,10,2.3,10,6.2,11
2018/1/24 8:29,2.3,10,2.4,10,4.1,9
2018/1/24 8:30,2.4,10,2.4,10,4.8,9
2018/1/24 8:31,2.7,10,2.7,10,5.6,8
2018/1/24 8:32,2.8,10,2.8,10,5.7,9
2018/1/24 8:33,2.8,10,2.8,10,6.1,10
2018/1/24 8:34,2.9,10,2.9,10,5.6,10
2018/1/24 8:35,3.2,10,3.2,10,7.2,11
2018/1/24 8:36,3.3,10,3.3,10,6.2,10
2018/1/24 8:37,3.4,10,3.4,10,6.3,10
2018/1/24 8:38,3.4,10,3.5,10,6.2,11
2018/1/24 8:39,3.4,10,3.4,10,3.8,11
2018/1/24 8:40,3.4,10,3.5,10,4.1,10
2018/1/24 8:41,3.3,10,3.4,10,5,10
2018/1/24 8:42,3.2,10,3.3,10,4.7,10
2018/1/24 8:43,3.2,10,3.2,10,7.1,9
2018/1/24 8:44,3.1,10,3.2,10,4.5,11
2018/1/24 8:45,3.1,10,3.2,10,5.8,10
2018/1/24 8:46,2.8,10,3.1,10,3,11
2018/1/24 8:47,2.5,10,2.7,10,1.9,9
2018/1/24 8:48,2.4,10,2.5,10,6,11
2018/1/24 8:49,2.6,10,2.6,10,6.3,10
2018/1/24 8:50,2.8,11,2.8,10,7.5,10
2018/1/24 8:51,2.8,11,2.8,10,4.2,9
2018/1/24 8:52,2.8,10,2.8,10,4.4,8
2018/1/24 8:53,2.7,11,2.8,10,5.1,10
2018/1/24 8:54,2.7,10,2.7,10,4.1,11
2018/1/24 8:55,2.6,11,2.7,10,4.9,10
2018/1/24 8:56,2.7,10,2.7,11,4.3,10
2018/1/24 8:57,2.8,10,2.8,11,4.5,10
2018/1/24 8:58,2.7,10,2.8,11,6.3,9
2018/1/24 8:59,2.6,10,2.7,11,4.9,14
2018/1/24 9:00,2.6,10,2.7,11,7.4,10
2018/1/24 9:01,2.7,11,2.7,11,5.2,11
2018/1/24 9:02,2.9,11,2.9,11,6,11
2018/1/24 9:03,2.9,11,2.9,11,4.8,12
2018/1/24 9:04,2.9,11,2.9,11,5.2,12
2018/1/24 9:05,3,11,3.1,11,6.7,9
2018/1/24 9:06,3,11,3,11,7,11
2018/1/24 9:07,3,11,3.1,11,5.4,12
2018/1/24 9:08,3,12,3.1,11,4.9,12
2018/1/24 9:09,3.1,12,3.1,11,4.8,10
2018/1/24 9:10,3.1,12,3.2,12,8.4,11
2018/1/24 9:11,3.2,11,3.2,12,6.9,11
2018/1/24 9:12,3.1,11,3.2,12,7.9,9
2018/1/24 9:13,3.3,11,3.3,11,7.9,11
2018/1/24 9:14,3.5,11,3.5,11,8.6,10
2018/1/24 9:15,3.8,11,3.8,11,8.4,9
2018/1/24 9:16,3.8,11,3.8,11,7.1,13
2018/1/24 9:17,4.1,11,4.1,11,8.7,9
2018/1/24 9:18,4.2,11,4.2,11,6.8,9
2018/1/24 9:19,4.2,11,4.2,11,6.1,13
2018/1/24 9:20,4,11,4.2,11,5.6,9
2018/1/24 9:21,4.1,11,4.2,11,7.9,12
2018/1/24 9:22,4.2,11,4.2,11,6.7,10
2018/1/24 9:23,4.1,11,4.2,11,5.2,10
2018/1/24 9:24,4.2,11,4.2,11,7.4,9
2018/1/24 9:25,4.1,11,4.2,11,8.4,14
2018/1/24 9:26,4.2,11,4.3,11,9.8,13
2018/1/24 9:27,4.1,11,4.2,11,5.7,11
2018/1/24 9:28,4,11,4,11,6.2,11
2018/1/24 9:29,4,11,4.1,11,6,10
2018/1/24 9:30,4.1,11,4.1,11,6.9,15
2018/1/24 9:31,4,11,4.1,11,7.2,10
2018/1/24 9:32,3.9,12,4,11,4.9,12
2018/1/24 9:33,3.9,12,3.9,11,7.2,10
2018/1/24 9:34,3.7,12,3.9,11,4.9,11
2018/1/24 9:35,3.4,12,3.7,11,4.2,12
2018/1/24 9:36,3.3,11,3.4,11,7.1,10
2018/1/24 9:37,3.2,12,3.3,11,4.8,11
2018/1/24 9:38,3.4,12,3.4,11,7.4,10
2018/1/24 9:39,3.4,11,3.4,11,6.1,9
2018/1/24 9:40,3.2,11,3.3,11,3.7,8
2018/1/24 9:41,3.1,11,3.1,11,6.7,10
2018/1/24 9:42,3.2,11,3.2,12,5,10
2018/1/24 9:43,3,11,3.2,12,9.5,10
2018/1/24 9:44,3.2,11,3.2,12,8.4,13
2018/1/24 9:45,3.6,11,3.6,11,7.6,10
2018/1/24 9:46,3.6,11,3.7,11,7,10
2018/1/24 9:47,3.5,11,3.6,11,5.5,10
2018/1/24 9:48,3.2,10,3.5,11,4.4,10
2018/1/24 9:49,3.3,11,3.3,11,6,10
2018/1/24 9:50,3.7,11,3.7,11,9.8,9
2018/1/24 9:51,3.8,11,3.8,11,9.9,9
2018/1/24 9:52,3.9,11,3.9,11,6.4,11
2018/1/24 9:53,4,11,4,11,5.8,11
2018/1/24 9:54,3.8,10,4,11,5.8,10
2018/1/24 9:55,3.6,10,3.8,11,5.6,11
2018/1/24 9:56,3.5,10,3.6,11,6.7,9
2018/1/24 9:57,3.6,10,3.6,11,7.5,9
2018/1/24 9:58,3.9,10,3.9,11,7.6,8
2018/1/24 9:59,4,10,4,11,7.8,9
2018/1/24 10:00,4,10,4.1,10,8.4,9
2018/1/24 10:01,4,10,4,10,7.9,10
2018/1/24 10:02,4.2,10,4.2,10,10,9
2018/1/24 10:03,4.2,10,4.2,10,8.5,9
2018/1/24 10:04,4.3,10,4.4,10,7.1,11
2018/1/24 10:05,4.2,10,4.3,10,6.7,9
2018/1/24 10:06,4.1,10,4.2,10,4.5,10
2018/1/24 10:07,4.2,10,4.2,10,7.8,10
2018/1/24 10:08,4.2,10,4.3,10,8.9,11
2018/1/24 10:09,4.2,10,4.2,10,7.4,10
2018/1/24 10:10,3.9,10,4.2,10,8.5,11
2018/1/24 10:11,4,10,4,10,8.3,11
2018/1/24 10:12,4,10,4,10,8.5,10
2018/1/24 10:13,4.1,10,4.1,10,8.3,11
2018/1/24 10:14,4,10,4,10,7.9,10
2018/1/24 10:15,4,10,4,10,5.7,10
2018/1/24 10:16,4.2,10,4.2,10,6.9,9
2018/1/24 10:17,4,10,4.2,10,6.7,9
2018/1/24 10:18,4,10,4.1,10,8.7,12
2018/1/24 10:19,4,10,4.1,10,8.1,9
2018/1/24 10:20,4.2,10,4.2,10,8.2,11
2018/1/24 10:21,4.3,10,4.3,10,8.7,10
2018/1/24 10:22,4,10,4.3,10,7.2,11
2018/1/24 10:23,3.8,10,4,10,6.7,10
2018/1/24 10:24,3.8,10,3.8,10,5.2,9
2018/1/24 10:25,4,10,4,10,9.1,10
2018/1/24 10:26,4.2,10,4.2,10,8.1,10
2018/1/24 10:27,4.2,10,4.2,10,7.4,10
2018/1/24 10:28,4,10,4.2,10,6.4,9
2018/1/24 10:29,3.8,10,4,10,5.2,8
2018/1/24 10:30,3.8,10,3.8,10,8.6,9
2018/1/24 10:31,3.5,10,3.8,10,6.3,9
2018/1/24 10:32,3.7,10,3.7,10,9.1,10
2018/1/24 10:33,3.8,10,3.8,10,8.5,9
2018/1/24 10:34,3.7,10,3.8,10,6.1,10
2018/1/24 10:35,3.8,10,3.8,10,7.8,10
2018/1/24 10:36,3.8,10,3.8,10,7.6,12
2018/1/24 10:37,3.7,10,3.7,10,6,11
2018/1/24 10:38,3.8,10,3.8,10,7.1,10
2018/1/24 10:39,4.2,10,4.2,10,8.6,10
2018/1/24 10:40,4,10,4.2,10,5.6,9
2018/1/24 10:41,4,10,4,10,5.8,11
2018/1/24 10:42,3.9,10,4.1,10,7.6,11
2018/1/24 10:43,4,11,4,10,7.7,11
2018/1/24 10:44,4.2,11,4.2,10,8.3,12
2018/1/24 10:45,4,11,4.3,11,6.3,11
2018/1/24 10:46,3.8,11,4,11,9,13
2018/1/24 10:47,3.9,11,3.9,11,6.4,13
2018/1/24 10:48,3.9,11,3.9,11,11.6,12
2018/1/24 10:49,3.6,11,3.8,11,5.7,13
2018/1/24 10:50,3.8,11,3.8,11,8.5,11
2018/1/24 10:51,4.1,11,4.1,11,7.9,12
2018/1/24 10:52,4,11,4.1,11,7.1,10
2018/1/24 10:53,3.7,12,4,11,5.6,10
2018/1/24 10:54,3.7,12,3.7,11,9.2,13
2018/1/24 10:55,4.1,12,4.1,11,12.2,11
2018/1/24 10:56,4.3,12,4.3,12,7.9,13
2018/1/24 10:57,4.1,12,4.2,12,4.2,11
2018/1/24 10:58,4.1,12,4.2,12,8.3,12